Weather reports worldwide

Advertisment
Kilis, Turkey (17262): temperature & dewpoint: 13.02.2019 16:00:00 - 19.02.2019 16:00:00 (EET)Kilis, Turkey (17262): wind speed: 13.02.2019 16:00:00 - 19.02.2019 16:00:00 (EET)Kilis, Turkey (17262): wind direction: 13.02.2019 16:00:00 - 19.02.2019 16:00:00 (EET)Kilis, Turkey (17262): reduced air pressure: 13.02.2019 16:00:00 - 19.02.2019 16:00:00 (EET)Kilis, Turkey (17262): visibility: 13.02.2019 16:00:00 - 19.02.2019 16:00:00 (EET)
Date & Time tt [°C] td [°C] ff [km/h] ff [kn] dd ppp [hPa] vv [km]
19.02.2019 16:00:00 - - - - - - -
19.02.2019 15:00:00 14,9 5,0 13 7 W 1018,1 20
19.02.2019 14:00:00 15,8 -1,4 13 7 W 1017,8 20
19.02.2019 13:00:00 15,4 0,6 15 8 W 1017,8 20
19.02.2019 12:00:00 14,5 1,3 15 8 W 1018,4 20
19.02.2019 11:00:00 13,8 0,0 11 6 W 1019,1 20
19.02.2019 10:00:00 12,3 0,4 13 7 W 1019,5 20
19.02.2019 09:00:00 10,3 1,2 9 5 W 1019,8 20
19.02.2019 08:00:00 9,3 1,0 9 5 W 1019,5 20
19.02.2019 07:00:00 - - - - - - -
19.02.2019 06:00:00 - - - - - - -
19.02.2019 05:00:00 7,8 1,5 8 4 WNW 1017,6 20
19.02.2019 04:00:00 - - - - - - -
19.02.2019 03:00:00 - - - - - - -
19.02.2019 02:00:00 8,1 1,9 11 6 WNW 1017,8 20
19.02.2019 01:00:00 - - - - - - -
19.02.2019 00:00:00 - - - - - - -
18.02.2019 23:00:00 8,6 2,0 13 7 WNW 1017,6 20
18.02.2019 22:00:00 - - - - - - -
18.02.2019 21:00:00 - - - - - - -
18.02.2019 20:00:00 9,3 3,6 9 5 W 1018,2 20
18.02.2019 19:00:00 9,3 4,1 9 5 W 1018,2 20
18.02.2019 18:00:00 10,0 4,2 11 6 W 1017,7 20
18.02.2019 17:00:00 11,2 4,4 9 5 WSW 1017,3 20
18.02.2019 16:00:00 13,2 3,3 9 5 WSW 1017,1 20
18.02.2019 15:00:00 15,1 0,2 4 2 WNW 1017,1 20
18.02.2019 14:00:00 14,2 -0,2 9 5 W 1017,5 20
18.02.2019 13:00:00 13,9 -0,1 8 4 W 1018,1 20
18.02.2019 12:00:00 13,0 -0,4 8 4 W 1018,8 20
18.02.2019 11:00:00 12,7 -0,3 8 4 W 1019,5 20
18.02.2019 10:00:00 11,1 2,4 4 2 WNW 1019,7 20
18.02.2019 09:00:00 8,1 3,4 4 2 WNW 1020,3 20
18.02.2019 08:00:00 7,2 4,1 2 1 W 1020,4 20
18.02.2019 07:00:00 - - - - - - -
18.02.2019 06:00:00 - - - - - - -
18.02.2019 05:00:00 4,8 3,5 0 0 N 1019,9 20
18.02.2019 04:00:00 - - - - - - -
18.02.2019 03:00:00 - - - - - - -
18.02.2019 02:00:00 5,2 3,7 0 0 N 1020,5 20
18.02.2019 01:00:00 - - - - - - -
18.02.2019 00:00:00 - - - - - - -
17.02.2019 23:00:00 5,9 4,1 2 1 SW 1021,2 20
17.02.2019 22:00:00 - - - - - - -
17.02.2019 21:00:00 - - - - - - -
17.02.2019 20:00:00 7,8 4,5 4 2 W 1022,1 20
17.02.2019 19:00:00 8,4 4,6 5 3 W 1022,1 20
17.02.2019 18:00:00 9,1 5,4 8 4 W 1021,7 20
17.02.2019 17:00:00 10,0 4,9 5 3 W 1021,3 20
17.02.2019 16:00:00 10,9 4,9 5 3 W 1021,0 20
17.02.2019 15:00:00 10,4 5,3 4 2 SW 1021,4 20
17.02.2019 14:00:00 10,5 4,8 2 1 WNW 1021,6 20
17.02.2019 13:00:00 10,9 4,4 5 3 W 1021,8 20
17.02.2019 12:00:00 10,0 5,0 5 3 WSW 1022,5 20
17.02.2019 11:00:00 9,4 4,8 4 2 W 1023,1 20
17.02.2019 10:00:00 9,6 3,6 2 1 WNW 1022,9 20
17.02.2019 09:00:00 8,4 3,4 0 0 N 1023,1 20
17.02.2019 08:00:00 6,8 4,2 0 0 N 1023,3 20
17.02.2019 07:00:00 - - - - - - -
17.02.2019 06:00:00 - - - - - - -
17.02.2019 05:00:00 6,4 3,9 2 1 WNW 1021,5 20
17.02.2019 04:00:00 - - - - - - -
17.02.2019 03:00:00 - - - - - - -
17.02.2019 02:00:00 6,1 3,6 0 0 N 1021,9 20
17.02.2019 01:00:00 - - - - - - -
17.02.2019 00:00:00 - - - - - - -
16.02.2019 23:00:00 7,0 3,7 2 1 W 1022,3 20
16.02.2019 22:00:00 - - - - - - -
16.02.2019 21:00:00 - - - - - - -
16.02.2019 20:00:00 6,6 3,6 0 0 N 1022,3 20
16.02.2019 19:00:00 7,0 3,6 0 0 N 1022,3 20
16.02.2019 18:00:00 6,9 4,4 0 0 N 1021,6 20
16.02.2019 17:00:00 7,3 4,4 0 0 N 1021,1 20
16.02.2019 16:00:00 7,3 4,6 2 1 E 1020,9 20
16.02.2019 15:00:00 8,0 3,6 4 2 SSE 1020,8 20
16.02.2019 14:00:00 8,8 3,5 2 1 SSE 1020,3 20
16.02.2019 13:00:00 8,6 3,2 4 2 SSE 1020,2 20
16.02.2019 12:00:00 8,6 2,6 0 0 N 1020,3 20
16.02.2019 11:00:00 8,2 3,3 2 1 WSW 1020,5 20
16.02.2019 10:00:00 7,2 3,4 2 1 SSE 1020,4 20
16.02.2019 09:00:00 7,1 2,4 0 0 N 1019,8 20
16.02.2019 08:00:00 4,8 2,5 2 1 SW 1019,8 20
16.02.2019 07:00:00 - - - - - - -
16.02.2019 06:00:00 - - - - - - -
16.02.2019 05:00:00 4,5 2,6 0 0 N 1017,1 20
16.02.2019 04:00:00 - - - - - - -
16.02.2019 03:00:00 - - - - - - -
16.02.2019 02:00:00 3,2 2,1 2 1 WSW 1016,9 20
16.02.2019 01:00:00 - - - - - - -
16.02.2019 00:00:00 - - - - - - -
15.02.2019 23:00:00 3,8 2,4 0 0 N 1016,9 20
15.02.2019 22:00:00 - - - - - - -
15.02.2019 21:00:00 - - - - - - -
15.02.2019 20:00:00 4,4 3,1 0 0 N 1017,1 20
15.02.2019 19:00:00 5,0 3,3 0 0 N 1017,2 20
15.02.2019 18:00:00 5,3 3,4 2 1 W 1016,6 20
15.02.2019 17:00:00 5,8 3,2 0 0 N 1016,1 20
15.02.2019 16:00:00 6,6 3,6 2 1 ESE 1015,4 20
15.02.2019 15:00:00 6,6 3,7 2 1 ESE 1015,2 20
15.02.2019 14:00:00 6,2 3,7 4 2 W 1015,2 20
15.02.2019 13:00:00 5,8 3,5 2 1 W 1015,3 20
15.02.2019 12:00:00 5,1 3,0 0 0 N 1015,7 20
15.02.2019 11:00:00 4,6 2,7 0 0 N 1016,3 10
15.02.2019 10:00:00 4,1 2,9 2 1 SE 1016,5 10
15.02.2019 09:00:00 4,2 3,2 4 2 SE 1016,3 10
15.02.2019 08:00:00 4,1 2,9 0 0 N 1015,6 10
15.02.2019 07:00:00 - - - - - - -
15.02.2019 06:00:00 - - - - - - -
15.02.2019 05:00:00 3,7 2,0 5 3 ENE 1013,5 20
15.02.2019 04:00:00 - - - - - - -
15.02.2019 03:00:00 - - - - - - -
15.02.2019 02:00:00 4,3 2,5 8 4 NE 1014,0 20
15.02.2019 01:00:00 - - - - - - -
15.02.2019 00:00:00 - - - - - - -
14.02.2019 23:00:00 4,0 2,5 4 2 ENE 1015,0 20
14.02.2019 22:00:00 - - - - - - -
14.02.2019 21:00:00 - - - - - - -
14.02.2019 20:00:00 3,6 2,4 16 9 E 1015,8 3,0
14.02.2019 19:00:00 4,4 3,3 18 10 E 1015,8 3,0
14.02.2019 18:00:00 4,9 3,6 18 10 E 1015,1 3,0
14.02.2019 17:00:00 4,9 3,5 15 8 E 1014,9 3,0
14.02.2019 16:00:00 4,8 3,4 18 10 E 1015,1 3,0
14.02.2019 15:00:00 4,9 3,6 21 11 E 1015,4 3,0
14.02.2019 14:00:00 4,8 3,8 22 12 E 1015,7 3,0
14.02.2019 13:00:00 5,7 4,5 21 11 E 1016,1 3,0
14.02.2019 12:00:00 6,1 4,7 18 10 E 1017,0 3,0
14.02.2019 11:00:00 6,0 4,8 16 9 E 1018,2 3,0
14.02.2019 10:00:00 6,0 4,6 16 9 E 1018,8 3,0
14.02.2019 09:00:00 6,5 4,5 16 9 E 1019,0 3,0
14.02.2019 08:00:00 6,4 4,2 22 12 E 1019,1 3,0
14.02.2019 07:00:00 - - - - - - -
14.02.2019 06:00:00 - - - - - - -
14.02.2019 05:00:00 7,5 4,3 24 13 E 1018,6 20
14.02.2019 04:00:00 - - - - - - -
14.02.2019 03:00:00 - - - - - - -
14.02.2019 02:00:00 8,0 4,1 21 11 E 1019,6 20
14.02.2019 01:00:00 - - - - - - -
14.02.2019 00:00:00 - - - - - - -
13.02.2019 23:00:00 8,6 4,2 16 9 ENE 1021,4 20
13.02.2019 22:00:00 - - - - - - -
13.02.2019 21:00:00 - - - - - - -
13.02.2019 20:00:00 9,2 4,6 18 10 E 1022,5 20
13.02.2019 19:00:00 9,7 4,9 16 9 E 1022,3 20
13.02.2019 18:00:00 9,7 4,9 15 8 E 1022,0 20
13.02.2019 17:00:00 11,1 3,9 16 9 E 1021,3 20
13.02.2019 16:00:00 12,0 3,9 21 11 E 1021,2 20

tt = temperature
td = dewpoint
ff = wind speed
dd = wind direction
ppp = reduced air pressure
vv = visibility

Next stations